Tracking 30743 objects as of 20-Jun-2025
HD Live streaming from Space Station
objects crossing your sky now

EXPLORER 11

Track EXPLORER 11 now!
10-day predictions
EXPLORER 11 is classified as:


NORAD ID: 107
Int'l Code: 1961-013A
Perigee: 470.0 km
Apogee: 1,196.3 km
Inclination: 28.8 °
Period: 101.4 minutes
Semi major axis: 7204 km
RCS: 0.4708 m2 (medium)
Launch date: April 27, 1961
Source: United States (US)
Launch site: AIR FORCE EASTERN TEST RANGE (AFETR)
Your satellite tracking list
Your tracking list is empty




NASA's NSSDC Master Catalog

Two Line Element Set (TLE):
1   107U 61013A   25171.48534927  .00001601  00000-0  18018-3 0  9996
2   107  28.7877 238.2936 0504074 356.1328   3.5444 14.19811139224556
Source of the keplerian elements: AFSPC